Location: Sabalos
(43.2860°N, 0.1414°E)
Time: 10:04:45
(UTC+00:00)

Cosmos 1151 Rocket - Pass Details

Date: 05 July 2020
Orbit: 591 x 617 km, 82.5° (Epoch: 05 August)

Event Time Altitude Azimuth Distance (km) Brightness Sun altitude
Rises 23:33:29 0° 352° (N) 2,875 7.9 -23.7°
Reaches altitude 10° 23:35:43 10° 352° (N) 1,962 6.7 -23.7°
Enters shadow 23:40:02 87° 65° (ENE) 609 2.9 -23.8°
